IRNSS-1B                
1 39635U 14017A   19258.06190073  .00000089  00000-0  00000+0 0  9996
2 39635  29.1383 281.7281 0020041 192.7111 316.8484  1.00279255 20065
PSLV R/B                
1 39636U 14017B   19257.83952209  .00002017  00000-0  29437-3 0  9990
2 39636  18.9879 163.3657 5982712 212.8451  89.2433  4.08741244 79671